Project,Study,Ord_Occ,Event_Num,Cast_ID,Date_Time_UTC,Date_Time_PST,Lat_Dec,Lon_Dec,Sta_ID,Line,Sta,Depth,Pressure,PrQ,Temp1,Temp1Q,Temp2,Temp2Q,TempAve,Salt1,Salt1Q,Salt1_Corr,Salt2,Salt2Q,Salt2_Corr,SaltAve_Corr,Ox1,Ox1Q,Ox1_CruiseCorr,Ox1_StaCorr,Ox2,Ox2Q,Ox2_CruiseCorr,Ox2_StaCorr,OxAve_StaCorr,Ox1uM,Ox1uM_CruiseCorr,Ox1uM_StaCorr,Ox2uM,Ox2uM_CruiseCorr,Ox2uM_StaCorr,OxAveuM_StaCorr,FluorV,FluorQ,EstChl_CruiseCorr,EstChl_StaCorr,ISUSV,ISUSQ,EstNO3_CruiseCorr,EstNO3_StaCorr,SigThetaTS1,SigThetaTS1Q,SigThetaTS2,SigThetaTS2Q,BAT,XMiss,TransQ,pH,pHQ,SPAR,SPARQ,PAR,PARQ,PoT1,PoT2,DynHt,SVA,OxSat1,OxSat2,BTL_Depth,BTL_Temp,SaltB,OxB,OxBuM,Chl-a,Phaeo,NO3,NO2,NH4,PO4,SIL
CalCOFI,2105SH,030,,2105_030u,10-May-2021 09:19:09,10-May-2021 01:19:09,33.15130,-120.01099,086.7 055.0,086.7,055.0,511.000,515.276,,6.1843,,6.1850,,6.1847,34.3101,,34.3113,34.3106,,34.3125,34.3119,0.2763,,0.3551,0.3658,0.2828,,0.3523,0.3496,0.3577,12.016,15.0603,15.6378,12.301,18.1058,15.5962,15.6170,0.0367,,,,0.5885,,0.0000,,26.9898,,26.9901,,,,,,,,,,,6.1387,6.1394,0.8086,113.200,3.998,4.093,,,,,,,,,,,,
CalCOFI,2105SH,030,,2105_030u,10-May-2021 09:19:11,10-May-2021 01:19:11,33.15130,-120.01102,086.7 055.0,086.7,055.0,510.000,514.266,,6.1899,,6.1894,,6.1897,34.3099,,34.3111,34.3107,,34.3126,34.3119,0.2763,,0.3551,0.3658,0.2828,,0.3523,0.3496,0.3577,12.013,15.0572,15.6346,12.298,18.1026,15.5931,15.6139,0.0358,,,,0.5885,,0.0000,,26.9890,,26.9896,,,,,,,,,,,6.1443,6.1438,0.8086,113.274,3.998,4.093,510,6.190,34.3098,0.312,13.57,,,39.96,0.00,0.00,3.12,73.20
CalCOFI,2105SH,030,,2105_030u,10-May-2021 09:19:12,10-May-2021 01:19:12,33.15130,-120.01102,086.7 055.0,086.7,055.0,509.000,513.257,,6.1906,,6.1895,,6.1901,34.3102,,34.3114,34.3107,,34.3126,34.3120,0.2762,,0.3549,0.3657,0.2828,,0.3523,0.3496,0.3577,12.012,15.0561,15.6336,12.296,18.1015,15.5910,15.6123,0.0362,,,,0.5885,,0.0000,,26.9891,,26.9896,,,,,,,,,,,6.1452,6.1440,0.8086,113.252,3.997,4.092,,,,,,,,,,,,
CalCOFI,2105SH,030,,2105_030u,10-May-2021 09:19:31,10-May-2021 01:19:31,33.15128,-120.01107,086.7 055.0,086.7,055.0,508.000,512.247,,6.1941,,6.1946,,6.1944,34.3103,,34.3115,34.3109,,34.3128,34.3122,0.2762,,0.3549,0.3657,0.2831,,0.3526,0.3500,0.3579,12.009,15.0530,15.6304,12.313,18.0983,15.6086,15.6195,0.0355,,,,0.5885,,0.0000,,26.9887,,26.9892,,,,,,,,,,,6.1488,6.1492,0.8121,113.280,3.997,4.098,,,,,,,,,,,,
CalCOFI,2105SH,030,,2105_030u,10-May-2021 09:19:36,10-May-2021 01:19:36,33.15128,-120.01108,086.7 055.0,086.7,055.0,507.000,511.237,,6.1956,,6.1957,,6.1957,34.3103,,34.3115,34.3109,,34.3128,34.3122,0.2761,,0.3548,0.3656,0.2830,,0.3525,0.3499,0.3578,12.007,15.0509,15.6283,12.306,18.0961,15.6013,15.6148,0.0359,,,,0.5885,,0.0000,,26.9885,,26.9890,,,,,,,,,,,6.1503,6.1504,0.8131,113.283,3.996,4.096,,,,,,,,,,,,
CalCOFI,2105SH,030,,2105_030u,10-May-2021 09:19:37,10-May-2021 01:19:37,33.15128,-120.01108,086.7 055.0,086.7,055.0,506.000,510.228,,6.1965,,6.1962,,6.1964,34.3102,,34.3114,34.3111,,34.3130,34.3122,0.2761,,0.3548,0.3656,0.2830,,0.3525,0.3499,0.3578,12.005,15.0488,15.6263,12.305,18.0939,15.6003,15.6133,0.0355,,,,0.5885,,0.0000,,26.9883,,26.9890,,,,,,,,,,,6.1513,6.1510,0.8131,113.290,3.996,4.096,,,,,,,,,,,,
CalCOFI,2105SH,030,,2105_030u,10-May-2021 09:19:37,10-May-2021 01:19:37,33.15128,-120.01108,086.7 055.0,086.7,055.0,505.000,509.218,,6.1973,,6.1975,,6.1974,34.3105,,34.3117,34.3110,,34.3129,34.3123,0.2760,,0.3547,0.3655,0.2829,,0.3524,0.3497,0.3576,12.003,15.0467,15.6242,12.303,18.0918,15.5982,15.6112,0.0364,,,,0.5885,,0.0000,,26.9884,,26.9888,,,,,,,,,,,6.1522,6.1523,0.8131,113.262,3.995,4.095,,,,,,,,,,,,
CalCOFI,2105SH,030,,2105_030u,10-May-2021 09:19:39,10-May-2021 01:19:39,33.15126,-120.01108,086.7 055.0,086.7,055.0,504.000,508.209,,6.2004,,6.2028,,6.2016,34.3104,,34.3116,34.3113,,34.3132,34.3124,0.2760,,0.3547,0.3655,0.2828,,0.3523,0.3496,0.3576,12.001,15.0446,15.6221,12.299,18.0896,15.5941,15.6081,0.0360,,,,0.5886,,0.0000,,26.9879,,26.9883,,,,,,,,,,,6.1553,6.1577,0.8131,113.299,3.995,4.094,,,,,,,,,,,,
CalCOFI,2105SH,030,,2105_030u,10-May-2021 09:19:42,10-May-2021 01:19:42,33.15126,-120.01110,086.7 055.0,086.7,055.0,503.000,507.199,,6.2178,,6.2221,,6.2200,34.3095,,34.3107,34.3107,,34.3126,34.3117,0.2772,,0.3560,0.3668,0.2899,,0.3597,0.3571,0.3620,12.053,15.0990,15.6765,12.608,18.1458,15.9133,15.7949,0.0359,,,,0.5888,,0.0000,,26.9850,,26.9854,,,,,,,,,,,6.1728,6.1771,0.8131,113.582,4.014,4.199,,,,,,,,,,,,
CalCOFI,2105SH,030,,2105_030u,10-May-2021 09:19:44,10-May-2021 01:19:44,33.15126,-120.01111,086.7 055.0,086.7,055.0,502.000,506.190,,6.2257,,6.2302,,6.2280,34.3089,,34.3101,34.3104,,34.3123,34.3112,0.2858,,0.3650,0.3758,0.2876,,0.3573,0.3547,0.3653,12.430,15.4931,16.0710,12.507,18.5529,15.8089,15.9400,0.0360,,,,0.5890,,0.0000,,26.9835,,26.9841,,,,,,,,,,,6.1807,6.1852,0.8131,113.715,4.140,4.166,,,,,,,,,,,,
CalCOFI,2105SH,030,,2105_030u,10-May-2021 09:19:44,10-May-2021 01:19:44,33.15126,-120.01112,086.7 055.0,086.7,055.0,501.000,505.180,,6.2289,,6.2364,,6.2327,34.3101,,34.3113,34.3101,,34.3120,34.3117,0.2815,,0.3605,0.3713,0.2867,,0.3564,0.3537,0.3625,12.241,15.2955,15.8732,12.467,18.3488,15.7676,15.8204,0.0362,,,,0.5891,,0.0000,,26.9840,,26.9830,,,,,,,,,,,6.1840,6.1915,0.8131,113.658,4.078,4.153,,,,,,,,,,,,
CalCOFI,2105SH,030,,2105_030u,10-May-2021 09:19:45,10-May-2021 01:19:45,33.15126,-120.01112,086.7 055.0,086.7,055.0,500.000,504.170,,6.2360,,6.2421,,6.2391,34.3086,,34.3098,34.3094,,34.3113,34.3106,0.2814,,0.3604,0.3712,0.2903,,0.3601,0.3575,0.3644,12.237,15.2914,15.8690,12.624,18.3445,15.9298,15.8994,0.0354,,,,0.5893,,0.0000,,26.9819,,26.9817,,,,,,,,,,,6.1912,6.1972,0.8131,113.853,4.076,4.206,,,,,,,,,,,,
CalCOFI,2105SH,030,,2105_030u,10-May-2021 09:19:46,10-May-2021 01:19:46,33.15126,-120.01112,086.7 055.0,086.7,055.0,499.000,503.161,,6.2446,,6.2461,,6.2454,34.3076,,34.3088,34.3089,,34.3108,34.3098,0.2859,,0.3651,0.3759,0.2923,,0.3622,0.3596,0.3678,12.431,15.4942,16.0720,12.713,18.5540,16.0217,16.0469,0.0354,,,,0.5894,,0.0000,,26.9800,,26.9809,,,,,,,,,,,6.1999,6.2013,0.8131,114.023,4.142,4.236,,,,,,,,,,,,
CalCOFI,2105SH,030,,2105_030u,10-May-2021 09:19:46,10-May-2021 01:19:46,33.15126,-120.01112,086.7 055.0,086.7,055.0,498.000,502.151,,6.2484,,6.2475,,6.2480,34.3075,,34.3087,34.3091,,34.3110,34.3099,0.2910,,0.3704,0.3813,0.2938,,0.3637,0.3611,0.3712,12.653,15.7262,16.3043,12.776,18.7938,16.0868,16.1956,0.0349,,,,0.5895,,0.0000,,26.9794,,26.9808,,,,,,,,,,,6.2038,6.2028,0.8131,114.071,4.216,4.257,,,,,,,,,,,,
CalCOFI,2105SH,030,,2105_030u,10-May-2021 09:19:47,10-May-2021 01:19:47,33.15126,-120.01112,086.7 055.0,086.7,055.0,497.000,501.142,,6.2461,,6.2486,,6.2474,34.3081,,34.3093,34.3092,,34.3111,34.3102,0.2879,,0.3672,0.3780,0.2952,,0.3652,0.3626,0.3703,12.518,15.5851,16.1631,12.835,18.6480,16.1478,16.1555,0.0361,,,,0.5897,,0.0000,,26.9802,,26.9807,,,,,,,,,,,6.2015,6.2041,0.8131,113.978,4.171,4.277,,,,,,,,,,,,
CalCOFI,2105SH,030,,2105_030u,10-May-2021 09:19:48,10-May-2021 01:19:48,33.15126,-120.01112,086.7 055.0,086.7,055.0,496.000,500.132,,6.2539,,6.2532,,6.2536,34.3069,,34.3081,34.3087,,34.3106,34.3094,0.2849,,0.3640,0.3749,0.2948,,0.3648,0.3622,0.3686,12.390,15.4513,16.0291,12.822,18.5097,16.1343,16.0817,0.0360,,,,0.5899,,0.0000,,26.9783,,26.9797,,,,,,,,,,,6.2094,6.2087,0.8131,114.157,4.129,4.273,,,,,,,,,,,,
CalCOFI,2105SH,030,,2105_030u,10-May-2021 09:19:49,10-May-2021 01:19:49,33.15128,-120.01112,086.7 055.0,086.7,055.0,495.000,499.123,,6.2650,,6.2676,,6.2663,34.3053,,34.3065,34.3066,,34.3085,34.3075,0.2870,,0.3662,0.3771,0.3018,,0.3720,0.3695,0.3733,12.480,15.5454,16.1233,13.123,18.6069,16.4453,16.2843,0.0355,,,,0.5902,,0.0000,,26.9755,,26.9762,,,,,,,,,,,6.2205,6.2231,0.8131,114.415,4.160,4.375,,,,,,,,,,,,
CalCOFI,2105SH,030,,2105_030u,10-May-2021 09:19:50,10-May-2021 01:19:50,33.15126,-120.01113,086.7 055.0,086.7,055.0,494.000,498.113,,6.2724,,6.2728,,6.2726,34.3044,,34.3056,34.3055,,34.3074,34.3065,0.2936,,0.3731,0.3840,0.2952,,0.3652,0.3626,0.3733,12.767,15.8454,16.4236,12.840,18.9169,16.1529,16.2883,0.0360,,,,0.5906,,0.0000,,26.9738,,26.9746,,,,,,,,,,,6.2280,6.2284,0.8131,114.568,4.257,4.281,,,,,,,,,,,,
CalCOFI,2105SH,030,,2105_030u,10-May-2021 09:19:51,10-May-2021 01:19:51,33.15126,-120.01114,086.7 055.0,086.7,055.0,493.000,497.104,,6.2727,,6.2754,,6.2741,34.3042,,34.3054,34.3049,,34.3068,34.3061,0.2888,,0.3681,0.3790,0.2994,,0.3695,0.3670,0.3730,12.559,15.6280,16.2060,13.018,18.6923,16.3368,16.2714,0.0358,,,,0.5910,,0.0000,,26.9736,,26.9738,,,,,,,,,,,6.2284,6.2311,0.8131,114.569,4.187,4.341,,,,,,,,,,,,
CalCOFI,2105SH,030,,2105_030u,10-May-2021 09:19:52,10-May-2021 01:19:52,33.15126,-120.01114,086.7 055.0,086.7,055.0,492.000,496.094,,6.2740,,6.2762,,6.2751,34.3039,,34.3051,34.3044,,34.3063,34.3057,0.2896,,0.3690,0.3798,0.3026,,0.3728,0.3703,0.3751,12.596,15.6667,16.2447,13.157,18.7322,16.4804,16.3626,0.0354,,,,0.5913,,0.0000,,26.9733,,26.9733,,,,,,,,,,,6.2298,6.2320,0.8131,114.592,4.200,4.387,,,,,,,,,,,,
CalCOFI,2105SH,030,,2105_030u,10-May-2021 09:19:53,10-May-2021 01:19:53,33.15126,-120.01115,086.7 055.0,086.7,055.0,491.000,495.085,,6.2741,,6.2762,,6.2752,34.3040,,34.3052,34.3045,,34.3064,34.3058,0.2961,,0.3758,0.3866,0.3010,,0.3712,0.3686,0.3776,12.875,15.9583,16.5367,13.090,19.0335,16.4112,16.4740,0.0360,,,,0.5916,,0.0000,,26.9733,,26.9734,,,,,,,,,,,6.2300,6.2321,0.8131,114.577,4.293,4.365,,,,,,,,,,,,
CalCOFI,2105SH,030,,2105_030u,10-May-2021 09:19:54,10-May-2021 01:19:54,33.15125,-120.01116,086.7 055.0,086.7,055.0,490.000,494.075,,6.2745,,6.2753,,6.2749,34.3037,,34.3049,34.3046,,34.3065,34.3057,0.2932,,0.3727,0.3836,0.2993,,0.3694,0.3669,0.3753,12.750,15.8277,16.4059,13.015,18.8985,16.3337,16.3698,0.0357,,,,0.5919,,0.0000,,26.9730,,26.9736,,,,,,,,,,,6.2305,6.2313,0.8131,114.589,4.251,4.339,,,,,,,,,,,,
CalCOFI,2105SH,030,,2105_030u,10-May-2021 09:19:55,10-May-2021 01:19:55,33.15124,-120.01117,086.7 055.0,086.7,055.0,489.000,493.065,,6.2744,,6.2751,,6.2748,34.3038,,34.3050,34.3043,,34.3062,34.3056,0.2960,,0.3757,0.3865,0.2989,,0.3690,0.3664,0.3765,12.871,15.9541,16.5325,13.000,19.0292,16.3182,16.4254,0.0356,,,,0.5921,,0.0000,,26.9731,,26.9733,,,,,,,,,,,6.2304,6.2311,0.8131,114.568,4.292,4.335,,,,,,,,,,,,
CalCOFI,2105SH,030,,2105_030u,10-May-2021 09:19:56,10-May-2021 01:19:56,33.15124,-120.01118,086.7 055.0,086.7,055.0,488.000,492.056,,6.2747,,6.2749,,6.2748,34.3036,,34.3048,34.3041,,34.3060,34.3054,0.2934,,0.3729,0.3838,0.2989,,0.3690,0.3664,0.3751,12.760,15.8381,16.4163,12.998,18.9093,16.3161,16.3662,0.0361,,,,0.5923,,0.0000,,26.9728,,26.9732,,,,,,,,,,,6.2309,6.2310,0.8131,114.575,4.255,4.334,,,,,,,,,,,,
CalCOFI,2105SH,030,,2105_030u,10-May-2021 09:19:57,10-May-2021 01:19:57,33.15124,-120.01118,086.7 055.0,086.7,055.0,487.000,491.046,,6.2744,,6.2744,,6.2744,34.3035,,34.3047,34.3041,,34.3060,34.3054,0.2931,,0.3726,0.3835,0.2989,,0.3690,0.3664,0.3750,12.745,15.8224,16.4006,12.997,18.8931,16.3151,16.3579,0.0358,,,,0.5925,,0.0000,,26.9728,,26.9733,,,,,,,,,,,6.2307,6.2306,0.8131,114.564,4.250,4.334,,,,,,,,,,,,
CalCOFI,2105SH,030,,2105_030u,10-May-2021 09:19:57,10-May-2021 01:19:57,33.15125,-120.01118,086.7 055.0,086.7,055.0,486.000,490.037,,6.2736,,6.2739,,6.2738,34.3035,,34.3047,34.3038,,34.3057,34.3052,0.2931,,0.3726,0.3835,0.2988,,0.3689,0.3663,0.3749,12.744,15.8214,16.3996,12.995,18.8921,16.3130,16.3563,0.0358,,,,0.5926,,0.0000,,26.9729,,26.9730,,,,,,,,,,,6.2299,6.2302,0.8131,114.537,4.249,4.333,,,,,,,,,,,,
CalCOFI,2105SH,030,,2105_030u,10-May-2021 09:19:58,10-May-2021 01:19:58,33.15126,-120.01118,086.7 055.0,086.7,055.0,485.000,489.028,,6.2725,,6.2724,,6.2725,34.3033,,34.3045,34.3033,,34.3052,34.3049,0.2930,,0.3725,0.3834,0.2988,,0.3689,0.3663,0.3749,12.743,15.8203,16.3985,12.994,18.8910,16.3120,16.3553,0.0366,,,,0.5928,,0.0000,,26.9728,,26.9729,,,,,,,,,,,6.2290,6.2288,0.8131,114.528,4.249,4.332,,,,,,,,,,,,
CalCOFI,2105SH,030,,2105_030u,10-May-2021 09:19:59,10-May-2021 01:19:59,33.15124,-120.01118,086.7 055.0,086.7,055.0,484.000,488.018,,6.2719,,6.2722,,6.2721,34.3031,,34.3043,34.3033,,34.3052,34.3048,0.2930,,0.3725,0.3834,0.2988,,0.3689,0.3663,0.3749,12.741,15.8182,16.3964,12.992,18.8888,16.3099,16.3532,0.0359,,,,0.5929,,0.0000,,26.9727,,26.9729,,,,,,,,,,,6.2285,6.2288,0.8131,114.523,4.248,4.332,,,,,,,,,,,,
CalCOFI,2105SH,030,,2105_030u,10-May-2021 09:19:59,10-May-2021 01:19:59,33.15124,-120.01118,086.7 055.0,086.7,055.0,483.000,487.008,,6.2681,,6.2704,,6.2693,34.3025,,34.3037,34.3030,,34.3049,34.3043,0.2930,,0.3725,0.3834,0.2987,,0.3688,0.3662,0.3748,12.741,15.8182,16.3964,12.992,18.8888,16.3099,16.3532,0.0351,,,,0.5930,,0.0000,,26.9727,,26.9729,,,,,,,,,,,6.2248,6.2270,0.8131,114.506,4.248,4.331,,,,,,,,,,,,
CalCOFI,2105SH,030,,2105_030u,10-May-2021 09:20:00,10-May-2021 01:20:00,33.15124,-120.01118,086.7 055.0,086.7,055.0,482.000,485.999,,6.2692,,6.2707,,6.2700,34.3025,,34.3037,34.3034,,34.3053,34.3045,0.2929,,0.3724,0.3833,0.2987,,0.3688,0.3662,0.3748,12.739,15.8162,16.3943,12.990,18.8867,16.3079,16.3511,0.0363,,,,0.5931,,0.0000,,26.9726,,26.9732,,,,,,,,,,,6.2259,6.2274,0.8131,114.501,4.247,4.331,,,,,,,,,,,,
CalCOFI,2105SH,030,,2105_030u,10-May-2021 09:20:01,10-May-2021 01:20:01,33.15124,-120.01120,086.7 055.0,086.7,055.0,481.000,484.990,,6.2667,,6.2657,,6.2662,34.3021,,34.3033,34.3022,,34.3041,34.3037,0.2929,,0.3724,0.3833,0.2988,,0.3689,0.3663,0.3748,12.738,15.8151,16.3933,12.994,18.8856,16.3120,16.3527,0.0364,,,,0.5932,,0.0000,,26.9726,,26.9728,,,,,,,,,,,6.2236,6.2226,0.8131,114.482,4.247,4.332,,,,,,,,,,,,
CalCOFI,2105SH,030,,2105_030u,10-May-2021 09:20:02,10-May-2021 01:20:02,33.15124,-120.01120,086.7 055.0,086.7,055.0,480.000,483.980,,6.2640,,6.2631,,6.2636,34.3014,,34.3026,34.3016,,34.3035,34.3031,0.2938,,0.3734,0.3842,0.3023,,0.3725,0.3700,0.3771,12.779,15.8580,16.4362,13.145,18.9299,16.4680,16.4521,0.0360,,,,0.5934,,0.0000,,26.9724,,26.9727,,,,,,,,,,,6.2209,6.2201,0.8131,114.486,4.260,4.382,,,,,,,,,,,,
CalCOFI,2105SH,030,,2105_030u,10-May-2021 09:20:03,10-May-2021 01:20:03,33.15124,-120.01120,086.7 055.0,086.7,055.0,479.000,482.971,,6.2621,,6.2631,,6.2626,34.3005,,34.3017,34.3012,,34.3031,34.3024,0.2952,,0.3748,0.3857,0.3056,,0.3759,0.3734,0.3796,12.838,15.9196,16.4979,13.288,18.9936,16.6157,16.5568,0.0366,,,,0.5936,,0.0000,,26.9719,,26.9724,,,,,,,,,,,6.2192,6.2201,0.8131,114.516,4.279,4.429,,,,,,,,,,,,
CalCOFI,2105SH,030,,2105_030u,10-May-2021 09:20:04,10-May-2021 01:20:04,33.15124,-120.01122,086.7 055.0,086.7,055.0,478.000,481.961,,6.2631,,6.2635,,6.2633,34.3000,,34.3012,34.3005,,34.3024,34.3018,0.2967,,0.3764,0.3873,0.3046,,0.3749,0.3724,0.3799,12.901,15.9855,16.5639,13.244,19.0616,16.5702,16.5671,0.0366,,,,0.5938,,0.0000,,26.9714,,26.9717,,,,,,,,,,,6.2202,6.2206,0.8131,114.548,4.300,4.415,,,,,,,,,,,,
CalCOFI,2105SH,030,,2105_030u,10-May-2021 09:20:05,10-May-2021 01:20:05,33.15124,-120.01122,086.7 055.0,086.7,055.0,477.000,480.952,,6.2632,,6.2640,,6.2636,34.2995,,34.3007,34.3002,,34.3021,34.3014,0.3039,,0.3839,0.3949,0.3027,,0.3729,0.3704,0.3827,13.217,16.3159,16.8945,13.165,19.4029,16.4886,16.6916,0.0362,,,,0.5940,,0.0000,,26.9709,,26.9714,,,,,,,,,,,6.2205,6.2213,0.8131,114.581,4.406,4.388,,,,,,,,,,,,
CalCOFI,2105SH,030,,2105_030u,10-May-2021 09:20:06,10-May-2021 01:20:06,33.15124,-120.01122,086.7 055.0,086.7,055.0,476.000,479.942,,6.2642,,6.2675,,6.2659,34.2998,,34.3010,34.2999,,34.3018,34.3014,0.2977,,0.3774,0.3883,0.3027,,0.3729,0.3704,0.3794,12.946,16.0325,16.6110,13.164,19.1102,16.4876,16.5493,0.0355,,,,0.5942,,0.0000,,26.9710,,26.9707,,,,,,,,,,,6.2215,6.2248,0.8131,114.556,4.316,4.388,,,,,,,,,,,,
CalCOFI,2105SH,030,,2105_030u,10-May-2021 09:20:07,10-May-2021 01:20:07,33.15122,-120.01122,086.7 055.0,086.7,055.0,475.000,478.933,,6.2657,,6.2684,,6.2671,34.2998,,34.3010,34.2998,,34.3017,34.3014,0.2975,,0.3772,0.3881,0.3030,,0.3732,0.3707,0.3794,12.939,16.0252,16.6036,13.174,19.1027,16.4979,16.5508,0.0360,,,,0.5943,,0.0000,,26.9709,,26.9705,,,,,,,,,,,6.2231,6.2258,0.8131,114.558,4.313,4.392,,,,,,,,,,,,
CalCOFI,2105SH,030,,2105_030u,10-May-2021 09:20:07,10-May-2021 01:20:07,33.15122,-120.01122,086.7 055.0,086.7,055.0,474.000,477.923,,6.2680,,6.2685,,6.2683,34.2990,,34.3002,34.2999,,34.3018,34.3010,0.2975,,0.3772,0.3881,0.3090,,0.3795,0.3770,0.3826,12.937,16.0231,16.6015,13.437,19.1005,16.7696,16.6856,0.0360,,,,0.5945,,0.0000,,26.9699,,26.9705,,,,,,,,,,,6.2255,6.2260,0.8131,114.635,4.313,4.480,,,,,,,,,,,,
CalCOFI,2105SH,030,,2105_030u,10-May-2021 09:20:08,10-May-2021 01:20:08,33.15122,-120.01122,086.7 055.0,086.7,055.0,473.000,476.914,,6.2710,,6.2683,,6.2697,34.2986,,34.2998,34.3002,,34.3021,34.3010,0.3000,,0.3798,0.3907,0.3147,,0.3854,0.3829,0.3868,13.046,16.1371,16.7156,13.685,19.2182,17.0258,16.8707,0.0359,,,,0.5947,,0.0000,,26.9692,,26.9708,,,,,,,,,,,6.2286,6.2259,0.8131,114.695,4.349,4.562,,,,,,,,,,,,
CalCOFI,2105SH,030,,2105_030u,10-May-2021 09:20:09,10-May-2021 01:20:09,33.15122,-120.01122,086.7 055.0,086.7,055.0,472.000,475.904,,6.2771,,6.2738,,6.2755,34.2974,,34.2986,34.2991,,34.3010,34.2998,0.3065,,0.3866,0.3976,0.3151,,0.3858,0.3833,0.3905,13.330,16.4340,17.0128,13.701,19.5249,17.0423,17.0276,0.0362,,,,0.5950,,0.0000,,26.9674,,26.9692,,,,,,,,,,,6.2347,6.2314,0.8131,114.853,4.445,4.568,,,,,,,,,,,,
CalCOFI,2105SH,030,,2105_030u,10-May-2021 09:20:10,10-May-2021 01:20:10,33.15122,-120.01122,086.7 055.0,086.7,055.0,471.000,474.895,,6.2871,,6.2995,,6.2933,34.2951,,34.2963,34.2960,,34.2979,34.2971,0.3083,,0.3885,0.3995,0.3202,,0.3911,0.3887,0.3941,13.406,16.5134,17.0923,13.923,19.6070,17.2716,17.1820,0.0357,,,,0.5954,,0.0000,,26.9643,,26.9634,,,,,,,,,,,6.2448,6.2571,0.8131,115.138,4.471,4.645,,,,,,,,,,,,
CalCOFI,2105SH,030,,2105_030u,10-May-2021 09:20:11,10-May-2021 01:20:11,33.15122,-120.01123,086.7 055.0,086.7,055.0,470.000,473.886,,6.3129,,6.3299,,6.3214,34.2938,,34.2950,34.2954,,34.2973,34.2962,0.3124,,0.3928,0.4038,0.3226,,0.3935,0.3912,0.3975,13.585,16.7006,17.2796,14.031,19.8003,17.3832,17.3314,0.0350,,,,0.5960,,0.0000,,26.9599,,26.9591,,,,,,,,,,,6.2706,6.2876,0.8131,115.568,4.534,4.684,,,,,,,,,,,,
CalCOFI,2105SH,030,,2105_030u,10-May-2021 09:20:12,10-May-2021 01:20:12,33.15122,-120.01124,086.7 055.0,086.7,055.0,469.000,472.876,,6.3367,,6.3671,,6.3519,34.2928,,34.2940,34.2960,,34.2979,34.2960,0.3153,,0.3958,0.4068,0.3241,,0.3951,0.3927,0.3998,13.711,16.8323,17.4115,14.092,19.9364,17.4462,17.4289,0.0356,,,,0.5965,,0.0000,,26.9561,,26.9547,,,,,,,,,,,6.2944,6.3248,0.8131,115.940,4.578,4.709,,,,,,,,,,,,
CalCOFI,2105SH,030,,2105_030u,10-May-2021 09:20:13,10-May-2021 01:20:13,33.15122,-120.01124,086.7 055.0,086.7,055.0,468.000,471.867,,6.3244,,6.3719,,6.3482,34.2966,,34.2978,34.2955,,34.2974,34.2976,0.3133,,0.3937,0.4047,0.3273,,0.3984,0.3961,0.4004,13.625,16.7424,17.3215,14.233,19.8435,17.5918,17.4567,0.0354,,,,0.5969,,0.0000,,26.9606,,26.9536,,,,,,,,,,,6.2823,6.3296,0.8131,115.487,4.548,4.756,,,,,,,,,,,,
CalCOFI,2105SH,030,,2105_030u,10-May-2021 09:20:14,10-May-2021 01:20:14,33.15120,-120.01124,086.7 055.0,086.7,055.0,467.000,470.857,,6.3337,,6.3693,,6.3515,34.2975,,34.2987,34.2970,,34.2989,34.2988,0.3159,,0.3965,0.4075,0.3290,,0.4002,0.3979,0.4027,13.735,16.8574,17.4366,14.309,19.9623,17.6704,17.5535,0.0354,,,,0.5973,,0.0000,,26.9601,,26.9552,,,,,,,,,,,6.2916,6.3271,0.8131,115.527,4.586,4.781,,,,,,,,,,,,
CalCOFI,2105SH,030,,2105_030u,10-May-2021 09:20:14,10-May-2021 01:20:14,33.15120,-120.01124,086.7 055.0,086.7,055.0,466.000,469.848,,6.3606,,6.3741,,6.3674,34.2949,,34.2961,34.2964,,34.2983,34.2972,0.3242,,0.4051,0.4162,0.3333,,0.4046,0.4023,0.4093,14.099,17.2379,17.8175,14.495,20.3555,17.8625,17.8400,0.0347,,,,0.5978,,0.0000,,26.9546,,26.9540,,,,,,,,,,,6.3185,6.3319,0.8131,116.060,4.710,4.844,,,,,,,,,,,,
CalCOFI,2105SH,030,,2105_030u,10-May-2021 09:20:15,10-May-2021 01:20:15,33.15120,-120.01124,086.7 055.0,086.7,055.0,465.000,468.839,,6.3948,,6.4045,,6.3997,34.2936,,34.2948,34.2958,,34.2977,34.2963,0.3249,,0.4059,0.4169,0.3346,,0.4060,0.4037,0.4103,14.130,17.2703,17.8499,14.552,20.3889,17.9214,17.8857,0.0360,,,,0.5985,,0.0000,,26.9491,,26.9496,,,,,,,,,,,6.3527,6.3624,0.8131,116.603,4.724,4.867,,,,,,,,,,,,
CalCOFI,2105SH,030,,2105_030u,10-May-2021 09:20:17,10-May-2021 01:20:17,33.15118,-120.01126,086.7 055.0,086.7,055.0,464.000,467.829,,6.4176,,6.4213,,6.4195,34.2922,,34.2934,34.2936,,34.2955,34.2945,0.3279,,0.4090,0.4201,0.3375,,0.4090,0.4067,0.4134,14.260,17.4062,17.9860,14.676,20.5293,18.0495,18.0178,0.0362,,,,0.5994,,0.0000,,26.9450,,26.9457,,,,,,,,,,,6.3755,6.3792,0.8131,116.998,4.770,4.910,,,,,,,,,,,,
CalCOFI,2105SH,030,,2105_030u,10-May-2021 09:20:18,10-May-2021 01:20:18,33.15118,-120.01126,086.7 055.0,086.7,055.0,463.000,466.820,,6.4177,,6.4263,,6.4220,34.2919,,34.2931,34.2922,,34.2941,34.2936,0.3268,,0.4079,0.4189,0.3359,,0.4073,0.4051,0.4120,14.213,17.3571,17.9368,14.606,20.4786,17.9771,17.9570,0.0356,,,,0.6001,,0.0000,,26.9448,,26.9439,,,,,,,,,,,6.3757,6.3843,0.8131,117.008,4.754,4.887,,,,,,,,,,,,
CalCOFI,2105SH,030,,2105_030u,10-May-2021 09:20:19,10-May-2021 01:20:19,33.15118,-120.01128,086.7 055.0,086.7,055.0,462.000,465.810,,6.4173,,6.4254,,6.4214,34.2920,,34.2932,34.2920,,34.2939,34.2936,0.3327,,0.4140,0.4251,0.3417,,0.4133,0.4111,0.4181,14.467,17.6226,18.2026,14.859,20.7529,18.2385,18.2206,0.0360,,,,0.6007,,0.0000,,26.9449,,26.9438,,,,,,,,,,,6.3754,6.3834,0.8131,116.981,4.839,4.971,,,,,,,,,,,,
CalCOFI,2105SH,030,,2105_030u,10-May-2021 09:20:20,10-May-2021 01:20:20,33.15118,-120.01126,086.7 055.0,086.7,055.0,461.000,464.801,,6.4193,,6.4300,,6.4247,34.2915,,34.2927,34.2918,,34.2937,34.2932,0.3288,,0.4100,0.4210,0.3368,,0.4083,0.4060,0.4135,14.300,17.4480,18.0278,14.647,20.5725,18.0195,18.0237,0.0348,,,,0.6013,,0.0000,,26.9442,,26.9430,,,,,,,,,,,6.3775,6.3881,0.8131,117.033,4.784,4.901,,,,,,,,,,,,
CalCOFI,2105SH,030,,2105_030u,10-May-2021 09:20:21,10-May-2021 01:20:21,33.15118,-120.01126,086.7 055.0,086.7,055.0,460.000,463.792,,6.4207,,6.4358,,6.4283,34.2918,,34.2930,34.2918,,34.2937,34.2934,0.3272,,0.4083,0.4194,0.3442,,0.4159,0.4137,0.4166,14.230,17.3748,17.9546,14.968,20.4969,18.3511,18.1529,0.0358,,,,0.6020,,0.0000,,26.9443,,26.9423,,,,,,,,,,,6.3789,6.3940,0.8131,117.010,4.760,5.009,,,,,,,,,,,,
CalCOFI,2105SH,030,,2105_030u,10-May-2021 09:20:22,10-May-2021 01:20:22,33.15118,-120.01128,086.7 055.0,086.7,055.0,459.000,462.782,,6.4305,,6.4382,,6.4344,34.2902,,34.2914,34.2914,,34.2933,34.2924,0.3332,,0.4146,0.4257,0.3431,,0.4148,0.4126,0.4192,14.490,17.6466,18.2267,14.919,20.7777,18.3005,18.2636,0.0362,,,,0.6027,,0.0000,,26.9417,,26.9417,,,,,,,,,,,6.3889,6.3965,0.8131,117.248,4.848,4.993,,,,,,,,,,,,
CalCOFI,2105SH,030,,2105_030u,10-May-2021 09:20:23,10-May-2021 01:20:23,33.15116,-120.01128,086.7 055.0,086.7,055.0,458.000,461.773,,6.4366,,6.4438,,6.4402,34.2901,,34.2913,34.2910,,34.2929,34.2921,0.3367,,0.4182,0.4293,0.3392,,0.4107,0.4085,0.4189,14.642,17.8055,18.3857,14.752,20.9419,18.1280,18.2569,0.0360,,,,0.6033,,0.0000,,26.9408,,26.9406,,,,,,,,,,,6.3950,6.4021,0.8131,117.326,4.900,4.938,,,,,,,,,,,,
CalCOFI,2105SH,030,,2105_030u,10-May-2021 09:20:24,10-May-2021 01:20:24,33.15116,-120.01128,086.7 055.0,086.7,055.0,457.000,460.764,,6.4423,,6.4476,,6.4450,34.2893,,34.2905,34.2898,,34.2917,34.2911,0.3332,,0.4146,0.4257,0.3402,,0.4118,0.4095,0.4176,14.492,17.6487,18.2287,14.792,20.7799,18.1693,18.1990,0.0354,,,,0.6039,,0.0000,,26.9394,,26.9391,,,,,,,,,,,6.4008,6.4060,0.8131,117.447,4.850,4.951,,,,,,,,,,,,
CalCOFI,2105SH,030,,2105_030u,10-May-2021 09:20:25,10-May-2021 01:20:25,33.15116,-120.01130,086.7 055.0,086.7,055.0,456.000,459.754,,6.4439,,6.4501,,6.4470,34.2888,,34.2900,34.2897,,34.2916,34.2908,0.3405,,0.4222,0.4333,0.3473,,0.4191,0.4170,0.4252,14.806,17.9770,18.5573,15.105,21.1190,18.4926,18.5250,0.0362,,,,0.6044,,0.0000,,26.9389,,26.9387,,,,,,,,,,,6.4024,6.4086,0.8131,117.488,4.956,5.057,,,,,,,,,,,,